星链-1144 (STARLINK-1144 )

导读

STARLINK-1144是美国太空探索技术公司SpaceX星链卫星互联网项目的卫星,于2020年1月7日发射入轨,属于星链早期部署批次。该卫星依托一箭多星技术发射,是星链低轨卫星星座建设的组成部分,旨在为全球提供高速低延迟卫星互联网服务,推动全球网络覆盖建设。

基本信息
目录编号:
44933
目录名称:
STARLINK-1144
国际标识:
2020-001V
轨道中心:
EARTH
卫星名称:
星链-1144
卫星全名:
星链-1144 (STARLINK-1144 )
卫星状态:
已陨落 最后检测时间 2026-02-14
发射日期:
2020-01-07 UTC
国别 :
美国 (US)
星等 :
--
该卫星已列入 空间交会检测服务 Space Conjunction Data Service (SCDS) ,当前飞行风险评估等级: 无高风险
轨道信息
数据来源 国际轨道数据
星历时间: 2026-02-14T09:30:00+0800
轨道信息已过期209天
半长轴: 6538.041km
偏心率: 0.0006129
轨道倾角: 53.020°
近地点辐角 224.343°
升交点赤经 330.324°
平近点角 135.713°
近地点: 155.896km
远地点: 163.912km
周期: 87.686分钟
每日圈数: 16.422202
详细信息
固有亮度:
5
最大亮度:
2.5
卫星平台:
Starlink V1.0
覆盖范围:
全球
运营商:
太空探索技术公司
运营商所在国:
美国
制造商(研发单位):
太空探索技术公司
制造商所在国:
美国
使用方式:
暂无
卫星简介
星链(Starlink)计划是由太空探索技术公司(SpaceX)提出的一个巨型低轨卫星互联网星座项目,计划在2019年至2024年间在太空搭建由约1.2万颗卫星组成的“星链”网络,其中1584颗将部署在地球上空550千米处的近地轨道,并从2020年开始工作。该卫星仍在工作。
与全量物体交会距离演化趋势
与全量物体交会风险概率演化趋势